Regional Weather Roundup
Issued by NWS

Home | Current Version | Previous Version | Text Only | Print | Product List | Glossary On
Versions: 1 2 3 4 5 6 7 8 9 10 11 12 13 14 15 16 17 18 19 20 21 22 23 24 25 26 27 28 29 30 31 32 33 34 35 36 37 38 39 40 41 42 43 44 45 46 47 48 49 50
000
ASUS44 KEWX 071911
RWRTX
SOUTH TEXAS REGIONAL WEATHER ROUNDUP
NATIONAL WEATHER SERVICE AUSTIN/SAN ANTONIO TX
200 PM CDT TUE JUL 07 2015

NOTE: "FAIR" INDICATED FEW OR NO CLOUDS BELOW 12,000 FEET WITH NO
SIGNIFICANT WEATHER AND/OR OBSTRUCTIONS TO VISIBILITY.

* - THESE STATIONS ARE NOT NWS OR FAA STATIONS...AND ARE NOT SUBJECT
    TO NWS AND FAA QUALITY CONTROL.

TXZ171-172-183>190-072000-
TEXAS HILL COUNTRY AND EDWARDS PLATEAU

CITY           SKY/WX    TMP DP  RH WIND       PRES   REMARKS
JUNCTION       CLOUDY    83  68  60 S13       30.00S
*LLANO         CLOUDY    88  66  48 SW14      30.01F HX  90
BURNET         CLOUDY    87  67  51 S14G26    30.01F HX  90
*HORSESHOE BAY CLOUDY    89  68  49 S10G23    29.98F HX  92
*KERRVILLE     PTSUNNY   84  71  64 S17G24    30.02S
*FREDERICKSBRG CLOUDY    84  65  53 S14G23    30.01F
*ROCKSPRINGS   CLOUDY    81  68  65 S15G23    30.04S HAZE
*BOERNE STAGE  PTSUNNY   84  68  58 S12G23    30.02F
*CASTROVILLE   PTSUNNY   89  68  51 SE18      29.99F HAZE    HX  92
HONDO          PTSUNNY   86  71  60 S17G24    29.99F HX  91
*UVALDE        PTSUNNY   85  71  62 S15       29.98S HX  90
DEL RIO        CLOUDY    81  72  74 SE14      29.95R
LAUGHLIN AFB   CLOUDY    84  73  69 S14       29.95F HX  90
CARRIZO SPRGS  CLOUDY    90  70  51 S14G22    29.93F HX  95
$$

TXZ173-191>194-202-209-217>225-228-072000-
CENTRAL AND SOUTH CENTRAL TEXAS

CITY           SKY/WX    TMP DP  RH WIND       PRES   REMARKS
GEORGETOWN     PTSUNNY   90  70  51 S15G23    29.96F HX  95
AUSTIN/BERGSTM PTSUNNY   87  72  60 S16       29.97F HX  93
AUSTIN/MABRY   PTSUNNY   88  71  57 S10G22    29.98F HX  94
*AUSTIN/EXEC   PTSUNNY   91  72  52 S13G18    29.98F HX  98
*LAGO VISTA    PTSUNNY   87  69  55 SE12G20   30.00F HX  92
SAN MARCOS     PTSUNNY   90  72  55 S15G24    29.98F HX  96
NEW BRAUNFELS  PTSUNNY   90  72  55 S17G24    29.97F HX  97
RANDOLPH AFB   PTSUNNY   90  71  53 S20       29.98F HX  96
PT SAN ANTONIO PTSUNNY   88  72  58 S21       29.96F HX  94
SAN ANTONIO    PTSUNNY   90  71  53 S16G25    29.98F HX  96
STINSON FIELD  PTSUNNY   89  72  56 S16G23    29.95F HX  96
*PLEASANTON    PTSUNNY   91  69  49 S15G23    29.97F HX  95
*LA GRANGE     MOSUNNY   91  76  62 S15       29.97F HX 102
*GIDDINGS      MOSUNNY   87  74  64 S10G20    30.03F HX  95
*GONZALES      MOSUNNY   91  76  62 SE17      29.98F HX 103
$$

TXZ163>164-176>182-195>201-210>213-226-227-235-072000-
SOUTHEAST TEXAS

CITY           SKY/WX    TMP DP  RH WIND       PRES   REMARKS
COLLEGE STN    MOSUNNY   92  73  53 S17G25    29.99F HX 100
*BRYAN         PTSUNNY   90  75  60 S13G23    30.00F HX 101
*CALDWELL      MOSUNNY   86  77  74 S15G24    30.02F HX  97
*CROCKETT        N/A     93  75  55 S16G23    30.03F HX 104
*BRENHAM       MOSUNNY   91  74  58 S16       30.01F HX 100
HUNTSVILLE     MOSUNNY   92  72  51 S10       30.01F HX  99
CONROE         PTSUNNY   90  70  51 SE17      30.02F HX  95
HOUSTON BUSH   MOSUNNY   92  74  55 S10G21    30.02F HX 101
HOUSTON HOBBY  MOSUNNY   90  74  59 S14G22    30.02F HX  99
*HOUSTON SW AP PTSUNNY   81  68  64 SE9G21    30.03F
PEARLAND       PTSUNNY   90  74  59 S13G28    30.05F HX  99
HOUSTON HOOKS  MOSUNNY   91  73  55 S17G23    30.02F HX  99
ELLINGTON FLD  MOSUNNY   91  73  55 S17       30.04  HX 100
SUGAR LAND     PTSUNNY   92  74  55 S15       30.02F HX 101
*HOUSTON EXEC  MOSUNNY   90  75  62 S17G23    30.03F HX 100
*CLEVELAND MUN PTSUNNY   91  77  62 S14       30.04F HAZE    HX 104
*WHARTON       MOSUNNY   89  74  62 S16G23    30.03F HX  98
*COLUMBUS      FAIR      89  76  64 S14G22    30.00F HX 100
$$

TXZ214>216-236>238-072000-
THE UPPER TEXAS COAST

CITY           SKY/WX    TMP DP  RH WIND       PRES   REMARKS
*ORANGE        MOSUNNY   89  70  52 S16       30.08F HX  94
PORT ARTHUR    PTSUNNY   91  76  61 S15G22    30.05F HX 103
GALVESTON      MOSUNNY   90  79  70 S18       30.06F HX 106
ANGLETON       MOSUNNY   90  77  65 S17       30.03F HX 103
*BAY CITY      CLOUDY    89  77  65 S16G24    30.03F HX 101
PALACIOS       PTSUNNY   90  77  65 S20G25    30.03S HX 103
$$

TXZ229>234-239>247-072000-
TEXAS COASTAL BEND AND RIO GRANDE PLAINS

CITY           SKY/WX    TMP DP  RH WIND       PRES   REMARKS
VICTORIA       PTSUNNY   90  76  63 S18       30.01F HX 101
*BEEVILLE      MOSUNNY   91  76  60 SE17G25   29.98  HX 102
ROCKPORT       LGT RAIN  89  77  67 SE17G26   29.99F HX 101
*PORT ARANSAS  CLOUDY    87  78  75 S14G20    30.00F HX 100
*PORT LAVACA   PTSUNNY   87  76  69 S18G24    30.02S HX  98
*INGLESIDE     PTSUNNY   89  76  65 S23G29    29.99F HX 101
CORPUS CHRISTI PTSUNNY   91  74  57 SE29G37   29.97F HX 100
CORPUS NAS     PTSUNNY   88  78  72 S24G33    29.99F HX 101
*ROBSTOWN      PTSUNNY   91  75  59 S17G28    29.98F HX 101
ALICE          PTSUNNY   93  76  57 SE18G25   29.95F HAZE    HX 105
KINGSVILLE NAS PTSUNNY   92  78  63 SE16G25   29.96F HX 107
COTULLA        PTSUNNY   91  70  49 S12G24    29.94F HX  96
*FAITH RANCH   MOSUNNY   91  70  49 S12G21    29.94S HX  97
LAREDO         PTSUNNY   95  69  42 S23       29.93F HX 100
$$

TXZ248>255-072000-
DEEP SOUTH TEXAS

CITY           SKY/WX    TMP DP  RH WIND       PRES   REMARKS
BROWNSVILLE    PTSUNNY   90  76  63 SE22G32   29.98F HX 101
PORT ISABEL    PTSUNNY  N/A N/A N/A S22G33    29.97F
*SOUTH PADRE   MOSUNNY   86  77  74 SW13      29.99F HX  97
HARLINGEN      PTSUNNY   93  74  53 S25G33    29.95F HX 103
*HEBBRONVILLE    N/A     91  70  49 SE17G26   29.95F HX  96
MCALLEN        PTSUNNY   94  74  52 S22G31    29.94F HX 104
*WESLACO       PTSUNNY   92  71  49 S22G28    29.95F HX  99
FALFURRIAS     MOSUNNY   93  73  52 SE20G26   29.94F HX 101
EDINBURG       MOSUNNY   94  71  46 SE22G28   29.95F HX 101
*ZAPATA        PTSUNNY   93  66  41 SE12G22   29.90F HX  96
$$

TXZ213>215-236>238-242>244-246-247-251-254-255-072000-
CMAN STATIONS

STATION/POSITION TIME  TEMP    WIND        PRES    WAVE
                       AIR SEA DIR/SP/G            HT/PER
                 (UTC) (F)     (DEG/KT/KT) (MB)    (FT/S)
$$

GMZ080-GMZ150>470-072000-
OFFSHORE BUOY REPORTS

STATION/POSITION TIME  TEMP    WIND        PRES    WAVE
                       AIR SEA DIR/SP/G            HT/PER
                 (UTC) (F)     (DEG/KT/KT) (MB)    (FT/S)
$$



USA.gov is the U.S. government's official web portal to all federal, state and local government web resources and services.